When you browse on this site, cookies collect data to enhance your experience and personalize the content and advertising you see.
Visit our Privacy Policy to learn more. By continuing to use the site, you agree to this use of cookies and data.
  • în România
  • Lista ţărilor
  • Pe 7 zile
  • Temperatura apei
  • Hartă satelitară
  • Meteo pe hartă
  • Widget-uri
  • user-avatar
    Intrare

    Meteo pe oră la Danville

    Astăzi, 13 Decembrie, Joi

    Timp Temperatura Precipitaţii Vânt Presiune Umiditate
    00:00 +1°C° 0 mm 1 m/s 745 mmHg 89%
    01:00 +1°C° 0 mm 1 m/s 745 mmHg 89%
    02:00 +1°C° 0 mm 1 m/s 745 mmHg 89%
    03:00 -1°C° 0 mm 2 m/s 745 mmHg 89%
    04:00 -1°C° 0 mm 2 m/s 746 mmHg 89%
    05:00 -1°C° 0 mm 2 m/s 746 mmHg 90%
    06:00 +1°C° 0 mm 2 m/s 746 mmHg 90%
    07:00 +2°C° 0 mm 2 m/s 746 mmHg 90%
    08:00 +2°C° 0 mm 3 m/s 747 mmHg 91%
    09:00 +3°C° 0 mm 3 m/s 747 mmHg 91%
    10:00 +3°C° 0 mm 3 m/s 747 mmHg 91%
    11:00 +4°C° 0 mm 3 m/s 747 mmHg 91%
    12:00 +5°C° 0 mm 3 m/s 747 mmHg 91%
    13:00 +5°C° 0 mm 3 m/s 747 mmHg 92%
    14:00 +5°C° 0 mm 3 m/s 746 mmHg 93%
    15:00 +5°C° 0 mm 3 m/s 746 mmHg 94%
    16:00 +5°C° 0.4 mm 3 m/s 746 mmHg 95%
    17:00 +4°C° 0.4 mm 3 m/s 747 mmHg 96%
    18:00 +5°C° 0.4 mm 2 m/s 747 mmHg 97%
    19:00 +5°C° 1.1 mm 2 m/s 747 mmHg 97%
    20:00 +5°C° 1.1 mm 2 m/s 747 mmHg 97%
    21:00 +4°C° 1.1 mm 3 m/s 747 mmHg 97%
    22:00 +6°C° 0.6 mm 2 m/s 747 mmHg 97%
    23:00 +6°C° 0.6 mm 2 m/s 747 mmHg 96%

    Mâine, 14 Decembrie, Vineri

    Timp Temperatura Precipitaţii Vânt Presiune Umiditate
    00:00 +6°C° 0.6 mm 2 m/s 747 mmHg 96%
    01:00 +6°C° 0.3 mm 2 m/s 748 mmHg 95%
    02:00 +7°C° 0.3 mm 1 m/s 748 mmHg 95%
    03:00 +7°C° 0.3 mm 1 m/s 748 mmHg 94%
    04:00 +7°C° 0.1 mm 1 m/s 748 mmHg 94%
    05:00 +5°C° 0.1 mm 2 m/s 748 mmHg 94%
    06:00 +5°C° 0.1 mm 2 m/s 748 mmHg 93%
    07:00 +6°C° 0.1 mm 2 m/s 749 mmHg 92%
    08:00 +6°C° 0.1 mm 2 m/s 749 mmHg 91%
    09:00 +6°C° 0.1 mm 2 m/s 749 mmHg 90%
    10:00 +7°C° 0 mm 3 m/s 749 mmHg 88%
    11:00 +7°C° 0 mm 3 m/s 749 mmHg 86%
    12:00 +8°C° 0 mm 3 m/s 748 mmHg 84%
    13:00 +7°C° 0.1 mm 4 m/s 748 mmHg 85%
    14:00 +7°C° 0.1 mm 4 m/s 748 mmHg 85%
    15:00 +7°C° 0.1 mm 5 m/s 747 mmHg 86%
    16:00 +6°C° 0.1 mm 5 m/s 747 mmHg 88%
    17:00 +6°C° 0.1 mm 5 m/s 748 mmHg 89%
    18:00 +5°C° 0.1 mm 5 m/s 748 mmHg 91%
    19:00 +5°C° 0.2 mm 5 m/s 748 mmHg 91%
    20:00 +5°C° 0.2 mm 5 m/s 748 mmHg 91%
    21:00 +5°C° 0.2 mm 5 m/s 748 mmHg 92%
    22:00 +5°C° 0.1 mm 5 m/s 748 mmHg 92%
    23:00 +4°C° 0.1 mm 6 m/s 747 mmHg 92%

    Poimâine, 15 Decembrie, Sâmbătă

    Timp Temperatura Precipitaţii Vânt Presiune Umiditate
    00:00 +3°C° 0.1 mm 6 m/s 747 mmHg 92%
    01:00 +3°C° 0.2 mm 6 m/s 746 mmHg 91%
    02:00 +3°C° 0.2 mm 6 m/s 746 mmHg 91%
    03:00 +3°C° 0.2 mm 6 m/s 746 mmHg 91%
    04:00 +3°C° 0.3 mm 6 m/s 745 mmHg 90%
    05:00 +3°C° 0.3 mm 6 m/s 745 mmHg 88%
    06:00 +3°C° 0.3 mm 6 m/s 745 mmHg 87%
    07:00 +3°C° 0.7 mm 7 m/s 745 mmHg 86%
    08:00 +3°C° 0.7 mm 7 m/s 745 mmHg 85%
    09:00 +3°C° 0.7 mm 7 m/s 745 mmHg 83%
    10:00 +3°C° 2.5 mm 7 m/s 745 mmHg 83%
    11:00 +3°C° 2.5 mm 7 m/s 745 mmHg 82%
    12:00 +4°C° 2.5 mm 7 m/s 744 mmHg 82%
    13:00 +4°C° 0.9 mm 6 m/s 744 mmHg 79%
    14:00 +4°C° 0.9 mm 6 m/s 744 mmHg 77%
    15:00 +4°C° 0.9 mm 6 m/s 744 mmHg 75%
    16:00 +3°C° 0.1 mm 6 m/s 744 mmHg 74%
    17:00 +3°C° 0.1 mm 5 m/s 744 mmHg 72%
    18:00 +3°C° 0.1 mm 5 m/s 745 mmHg 70%
    19:00 +3°C° 0 mm 5 m/s 745 mmHg 71%
    20:00 +3°C° 0 mm 4 m/s 746 mmHg 71%
    21:00 +3°C° 0 mm 4 m/s 746 mmHg 71%
    22:00 +3°C° 0 mm 4 m/s 746 mmHg 74%
    23:00 +1°C° 0 mm 4 m/s 747 mmHg 76%

    16 Decembrie, Duminică

    Timp Temperatura Precipitaţii Vânt Presiune Umiditate
    00:00 +1°C° 0 mm 4 m/s 747 mmHg 78%
    01:00 0°C° 0 mm 4 m/s 747 mmHg 80%
    02:00 0°C° 0 mm 4 m/s 747 mmHg 81%
    03:00 0°C° 0 mm 4 m/s 747 mmHg 83%
    04:00 -1°C° 0 mm 4 m/s 747 mmHg 83%
    05:00 0°C° 0 mm 3 m/s 748 mmHg 83%
    06:00 0°C° 0 mm 3 m/s 748 mmHg 83%
    07:00 +1°C° 0 mm 3 m/s 748 mmHg 78%
    08:00 +1°C° 0 mm 3 m/s 749 mmHg 73%
    09:00 +2°C° 0 mm 3 m/s 749 mmHg 69%
    10:00 +4°C° 0 mm 3 m/s 749 mmHg 65%
    11:00 +5°C° 0 mm 3 m/s 749 mmHg 61%
    12:00 +7°C° 0 mm 3 m/s 749 mmHg 57%
    13:00 +7°C° 0 mm 4 m/s 749 mmHg 56%
    14:00 +7°C° 0 mm 4 m/s 749 mmHg 56%
    15:00 +7°C° 0 mm 4 m/s 748 mmHg 55%
    16:00 +6°C° 0 mm 4 m/s 749 mmHg 61%
    17:00 +4°C° 0 mm 4 m/s 749 mmHg 67%
    18:00 +3°C° 0 mm 4 m/s 749 mmHg 74%
    19:00 +1°C° 0 mm 4 m/s 750 mmHg 73%
    20:00 +1°C° 0 mm 4 m/s 750 mmHg 73%
    21:00 0°C° 0 mm 4 m/s 750 mmHg 73%
    22:00 0°C° 0 mm 4 m/s 750 mmHg 72%
    23:00 -1°C° 0 mm 4 m/s 750 mmHg 72%

    17 Decembrie, Luni

    Timp Temperatura Precipitaţii Vânt Presiune Umiditate
    00:00 -2°C° 0 mm 4 m/s 750 mmHg 71%
    01:00 -2°C° 0 mm 5 m/s 750 mmHg 70%
    02:00 -2°C° 0 mm 5 m/s 750 mmHg 69%
    03:00 -2°C° 0 mm 5 m/s 750 mmHg 67%
    04:00 -4°C° 0 mm 5 m/s 750 mmHg 67%
    05:00 -3°C° 0 mm 4 m/s 750 mmHg 67%
    06:00 -3°C° 0 mm 4 m/s 751 mmHg 68%
    07:00 -4°C° 0 mm 5 m/s 751 mmHg 66%
    08:00 -2°C° 0 mm 5 m/s 751 mmHg 64%
    09:00 -2°C° 0 mm 5 m/s 752 mmHg 62%
    10:00 -1°C° 0 mm 5 m/s 752 mmHg 59%
    11:00 -1°C° 0 mm 5 m/s 752 mmHg 57%
    12:00 0°C° 0 mm 4 m/s 751 mmHg 55%
    13:00 0°C° 0 mm 4 m/s 751 mmHg 55%
    14:00 0°C° 0 mm 4 m/s 751 mmHg 55%
    15:00 0°C° 0 mm 4 m/s 751 mmHg 55%
    16:00 0°C° 0 mm 3 m/s 752 mmHg 60%
    17:00 -1°C° 0 mm 3 m/s 752 mmHg 64%
    18:00 -2°C° 0 mm 2 m/s 752 mmHg 69%
    19:00 -2°C° 0 mm 2 m/s 752 mmHg 70%
    20:00 -2°C° 0 mm 2 m/s 752 mmHg 70%
    21:00 -2°C° 0 mm 2 m/s 753 mmHg 71%
    22:00 -1°C° 0 mm 1 m/s 753 mmHg 71%
    23:00 -1°C° 0 mm 1 m/s 753 mmHg 70%

    18 Decembrie, Marţi

    Timp Temperatura Precipitaţii Vânt Presiune Umiditate
    00:00 -1°C° 0 mm 1 m/s 753 mmHg 70%
    01:00 -1°C° 0 mm 1 m/s 753 mmHg 70%
    02:00 -1°C° 0 mm 1 m/s 753 mmHg 70%
    03:00 -1°C° 0 mm 1 m/s 753 mmHg 70%
    04:00 -1°C° 0 mm 1 m/s 753 mmHg 70%
    05:00 -1°C° 0 mm 1 m/s 753 mmHg 70%
    06:00 -1°C° 0 mm 1 m/s 753 mmHg 70%
    07:00 -1°C° 0 mm 1 m/s 754 mmHg 67%
    08:00 -1°C° 0 mm 0 m/s 754 mmHg 63%
    09:00 -1°C° 0 mm 0 m/s 754 mmHg 59%
    10:00 0°C° 0 mm 0 m/s 754 mmHg 55%
    11:00 +1°C° 0 mm 0 m/s 754 mmHg 51%
    12:00 +3°C° 0 mm 0 m/s 753 mmHg 46%
    13:00 +3°C° 0 mm 0 m/s 753 mmHg 46%
    14:00 +3°C° 0 mm 0 m/s 753 mmHg 46%
    15:00 +3°C° 0 mm 0 m/s 753 mmHg 46%
    16:00 +2°C° 0 mm 0 m/s 753 mmHg 51%
    17:00 +2°C° 0 mm 1 m/s 753 mmHg 55%
    18:00 +1°C° 0 mm 1 m/s 753 mmHg 59%
    19:00 +1°C° 0 mm 1 m/s 753 mmHg 61%
    20:00 0°C° 0 mm 1 m/s 753 mmHg 62%
    21:00 -2°C° 0 mm 2 m/s 753 mmHg 63%
    22:00 -2°C° 0 mm 2 m/s 753 mmHg 64%
    23:00 -2°C° 0 mm 2 m/s 753 mmHg 65%
    Arată mai mult